Location: Estes Par
(40.3770°N, 105.5210°W)
Time: 19:14:16
(UTC-06:00)

Vanguard 2 - All Passes

Search period start: 26 April 2018 00:00
Search period end: 06 May 2018 00:00
Orbit: 553 x 2939 km, 32.9° (Epoch: 26 April)

Date Brightness Start Highest point End Pass type
(mag) Time Alt. Az. Time Alt. Az. Time Alt. Az.
26 Apr - 01:42:35 10° W 01:48:47 34° SSW 01:53:05 10° SE night (unlit)
26 Apr - 19:28:30 10° SSW 19:39:19 24° SSE 19:47:23 10° ESE daylight
26 Apr - 21:37:33 10° SW 21:49:22 42° SSE 21:56:46 10° E visible
26 Apr - 23:49:12 10° WSW 23:58:33 49° S 00:04:16 10° ESE visible
27 Apr - 02:00:55 10° W 02:06:34 28° SSW 02:10:38 10° SE night (unlit)
27 Apr - 17:42:09 10° SSE 17:46:57 12° SE 17:51:21 10° SE daylight
27 Apr - 19:45:01 10° SSW 19:57:23 30° SSE 20:06:09 10° E daylight
27 Apr - 21:55:18 10° WSW 22:07:26 48° S 22:14:51 10° E visible
28 Apr - 00:07:22 10° W 00:16:31 47° S 00:22:08 10° ESE visible
28 Apr - 02:19:24 10° WSW 02:24:15 22° SSW 02:27:56 10° SSE night (unlit)
28 Apr - 17:55:33 10° S 18:04:57 18° SE 18:12:52 10° ESE daylight
28 Apr - 20:02:01 10° SW 20:15:26 37° SSE 20:24:34 10° E visible
28 Apr - 22:13:14 10° WSW 22:25:29 52° S 22:32:52 10° ESE visible
29 Apr - 00:25:36 10° W 00:34:25 44° SSW 00:39:55 10° SE visible
29 Apr - 02:38:14 10° WSW 02:41:51 16° SW 02:44:47 10° S night (unlit)
29 Apr - 18:10:59 10° SSW 18:22:56 24° SSE 18:32:30 10° ESE daylight
29 Apr - 20:19:23 10° SW 20:33:31 44° SSE 20:42:49 10° E visible
29 Apr - 22:31:20 10° WSW 22:43:31 55° S 22:50:49 10° ESE visible
30 Apr - 00:43:54 10° W 00:52:15 38° SSW 00:57:35 10° SE visible
30 Apr - 02:58:34 10° SW 02:59:21 10° SW 03:00:06 10° SSW night (unlit)
30 Apr - 16:27:28 10° SSE 16:30:24 11° SE 16:33:14 10° SE daylight
30 Apr - 18:27:15 10° SSW 18:40:56 31° SSE 18:51:25 10° E daylight
30 Apr - 20:37:02 10° SW 20:51:36 50° SSE 21:00:57 10° E visible
30 Apr - 22:49:30 10° WSW 23:01:32 55° S 23:08:43 10° ESE visible
01 May - 01:02:16 10° W 01:09:59 32° SSW 01:15:06 10° SE visible
01 May - 16:39:07 10° S 16:48:16 16° SE 16:56:33 10° ESE daylight
01 May - 18:44:04 10° SW 18:58:57 38° SSE 19:09:58 10° E daylight
01 May - 20:54:54 10° WSW 21:09:41 55° S 21:18:59 10° E visible
01 May - 23:07:45 10° W 23:19:30 53° SSW 23:26:33 10° ESE visible
02 May - 01:20:49 10° W 01:27:37 25° SSW 01:32:21 10° SSE visible
02 May - 16:54:04 10° S 17:06:06 23° SE 17:16:40 10° E daylight
02 May - 19:01:17 10° SW 19:16:59 44° SSE 19:28:18 10° E daylight
02 May - 21:12:56 10° WSW 21:27:46 59° S 21:37:00 10° E visible
02 May - 23:26:03 10° W 23:37:25 48° SSW 23:44:19 10° SE visible
03 May - 01:39:39 10° W 01:45:07 19° SW 01:49:14 10° S visible
03 May - 17:10:04 10° SSW 17:23:58 29° SSE 17:35:52 10° E daylight
03 May - 19:18:48 10° SW 19:35:02 51° SSE 19:46:30 10° E daylight
03 May - 21:31:06 10° WSW 21:45:51 60° S 21:54:57 10° ESE visible
03 May - 23:44:24 10° W 23:55:15 42° SSW 00:01:57 10° SE visible
04 May - 01:59:16 10° WSW 02:02:32 13° SW 02:05:18 10° SSW visible
04 May - 15:24:04 10° SSE 15:31:25 14° SE 15:38:35 10° ESE daylight
04 May - 17:26:40 10° SSW 17:41:53 36° SSE 17:54:36 10° E daylight
04 May - 19:36:33 10° WSW 19:53:08 56° SSE 20:04:36 10° E daylight
04 May - 21:49:20 10° W 22:03:54 59° S 22:12:51 10° ESE visible
05 May - 00:02:51 10° W 00:12:57 36° SSW 00:19:25 10° SE visible
05 May - 15:38:09 10° S 15:49:05 20° SE 15:59:39 10° E daylight
05 May - 17:43:42 10° SW 17:59:49 43° SSE 18:13:03 10° E daylight
05 May - 19:54:30 10° WSW 20:11:14 61° S 20:22:40 10° E daylight
05 May - 22:07:37 10° W 22:21:54 57° SSW 22:30:41 10° ESE visible
